Regional Weather Roundup
Issued by NWS Boston, MA

Home | Current Version | Previous Version | Text Only | Print | Product List | Glossary On
Versions: 1 2 3 4 5 6 7 8 9 10 11 12 13 14 15 16 17 18 19 20 21 22 23 24 25 26 27 28 29 30 31 32 33 34 35 36 37 38 39 40 41 42 43 44 45 46 47 48 49 50
000
ASUS41 KBOX 262310
RWRBOX

REGIONAL WEATHER ROUNDUP
NATIONAL WEATHER SERVICE TAUNTON MA
700 PM EDT MON SEP 26 2016

NOTE:  "FAIR" INDICATES FEW OR NO CLOUDS BELOW 12,000 FEET WITH NO
SIGNIFICANT WEATHER AND/OR OBSTRUCTIONS TO VISIBILITY.

MAZALL-270000-
EASTERN MASSACHUSETTS

CITY           SKY/WX    TMP DP  RH WIND       PRES   REMARKS
BOSTON         MOCLDY    62  46  55 SW12      30.07F
BEVERLY        CLOUDY    58  48  69 SE7       30.07F
LAWRENCE       MOCLDY    59  45  59 SE7       30.08F
BEDFORD        PTCLDY    60  40  47 S6        30.05F
BLUE HILL      NOT AVBL
NORWOOD        PTCLDY    59  46  62 S5        30.07F
MARSHFIELD     CLEAR     61  46  59 S5        30.09S
PLYMOUTH       CLEAR     58  45  62 S5        30.10F
TAUNTON        CLEAR     59  47  64 S6        30.09F
NEW BEDFORD    CLEAR     58  48  69 S5        30.10S
$$

MAZALL-270000-
CAPE COD AND THE ISLANDS

CITY           SKY/WX    TMP DP  RH WIND       PRES   REMARKS
FALMOUTH       CLEAR     55  46  71 SW6       30.12S
HYANNIS        CLEAR     59  44  57 SW9       30.11R
CHATHAM        CLEAR     59  45  59 SW7       30.13F
PROVINCETOWN   CLEAR     59  47  64 SW14      30.11S
NANTUCKET      CLEAR     58  44  60 SW10      30.13F
MARTHAS VNYRD  CLEAR     56  45  66 SW7       30.12S
$$

MAZALL-270000-
CENTRAL AND WESTERN MASSACHUSETTS

CITY           SKY/WX    TMP DP  RH WIND       PRES   REMARKS
WORCESTER      PTCLDY    58  44  60 S9        30.07F
FITCHBURG      PTCLDY    60  45  57 CALM      30.06F
ORANGE         CLOUDY    55  48  77 CALM      30.04F
SPRINGFIELD    CLOUDY    61  48  60 S10       30.03F
WESTFIELD      CLOUDY    62  48  60 S9        30.04F
NORTH ADAMS    CLOUDY    58  50  75 E6        30.02S
PITTSFIELD     CLOUDY    60  46  59 E6        30.02S
$$

RIZALL-270000-
RHODE ISLAND

CITY           SKY/WX    TMP DP  RH WIND       PRES   REMARKS
PROVIDENCE     PTCLDY    60  46  59 S10       30.10F
NEWPORT        CLEAR     60  46  59 S6        30.10F
BLOCK ISLAND   PTCLDY    63  49  60 S10       30.11F
SMITHFIELD     CLEAR     58  47  66 SW6       30.09F
WESTERLY       PTCLDY    64  46  52 S9        30.10F
$$

CTZALL-270000-
CONNECTICUT

CITY           SKY/WX    TMP DP  RH WIND       PRES   REMARKS
BRADLEY INTL   CLOUDY    62  48  60 S14       30.05F
HARTFORD       CLEAR     63  50  62 S6        30.05F
BRIDGEPORT     MOCLDY    68  52  56 S16       30.06F
DANBURY        MOCLDY    63  50  62 S7        30.07S
GROTON         CLOUDY    65  51  60 S13       30.08F
NEW HAVEN      MOCLDY    65  51  60 S16G24    30.07F
CHESTER        FAIR      61  50  67 S7        30.08F
MERIDEN        PTCLDY    65  49  56 S8        30.06F
WILLIMANTIC    CLOUDY    62  49  62 S6        30.08F
OXFORD         MOCLDY    63  46  55 S9G16     30.09R
$$

MEZ002-015-021-024-NHZ003-005-008-011-012-014-VTZ005-008-270000-
NORTHERN NEW ENGLAND

CITY           SKY/WX    TMP DP  RH WIND       PRES   REMARKS
PORTLAND ME    CLOUDY    55  43  63 S7        30.07F
BANGOR ME      PTCLDY    54  42  64 S6        30.05S
CONCORD NH     MOCLDY    58  42  55 SE5       30.04F
MANCHESTER NH  MOCLDY    63  40  42 S6        30.04S
NASHUA NH      MOCLDY    59  46  62 CALM      30.06S
PORTSMOUTH NH  MOCLDY    55  44  65 SE7       30.05F
JAFFREY NH     PTCLDY    55  44  66 CALM      30.06F
KEENE NH       PTCLDY    55  48  77 CALM      30.03F
BURLINGTON VT  MOCLDY    61  40  45 S6        29.95F
MT. WASHINGTON MOCLDY    36  21  55 W26         N/A  WCI  23
$$

NYZ052-076-270000-
EASTERN NEW YORK

CITY           SKY/WX    TMP DP  RH WIND       PRES   REMARKS
ALBANY         CLOUDY    66  48  52 S12       29.98S
NEW YORK CITY  CLOUDY    69  49  48 S13       30.05F
$$

ANZALL-270000-
MARINE OBSERVATIONS

STATION/POSITION TIME  TEMP    WIND        PRES    VSBY  WAVE
                       AIR SEA DIR/SP/G                  HT/PER
                 (UTC) (F)     (DEG/KT/KT) (MB)    (MI)  (FT/S)
BOSTON BUOY      2250   62 64  160/ 16/ 17 1017.9F         2/ 3
BUZZARDS BAY     2300   62     210/ 12/ 13 1020.0F
NANTUCKET SOUND  2250   62 69  230/ 14/ 16 1019.5F         1/ 2
MASS BAY-STELLWA 2204   60 62  160/ 16/ 17 1018.4F  1 7/8  1/ 3
ISLE OF SHOALS   2300   58     160/ 19/ 21 1018.1F
S OF BLOCK IS    2155      67                N/A           1/ 9
$$

......................KEY.........................
  SKY/WX - SKY CONDITION/PRESENT WEATHER
  TMP    - TEMPERATURE IN FAHRENHEIT
  DWPT   - DEWPOINT IN FAHRENHEIT
  RH     - RELATIVE HUMIDITY IN PERCENT
  WIND   - DIRECTION AND SPEED IN MPH
  PRES   - MEAN SEA LEVEL PRESSURE IN INCHES OF HG
  WCI    - WIND CHILL INDEX
  VSB    - VISIBILITY IN MILES
  HX     - HEAT INDEX
  TC     - TEMPERATURE IN CELSIUS
  VRB    - VARIABLE WIND DIRECTION
  N/A    - NOT AVAILABLE



USA.gov is the U.S. government's official web portal to all federal, state and local government web resources and services.